EW3948 Weather Reports


time (UTC)temp
F
wind
direction
speed
knots
gust
knots
rain 1hr
in
rain 24hr
in
rain mn
in
humidity
%
barometer
mb
20260507142505 56 0.0 0.0 0.00 0.00 0.00 51 1014.7
20260507142007 56 0.0 0.0 0.00 0.00 0.00 55 1014.8
20260507141524 56 0.0 0.0 0.00 0.00 0.00 56 1014.8
20260507141008 56 0.0 0.0 0.00 0.00 0.00 51 1014.8
20260507140507 56 0.0 0.0 0.00 0.00 0.00 56 1015.0
20260507140030 55 0.0 0.0 0.00 0.01 0.00 54 1015.0
20260507135505 55 0.0 0.0 0.00 0.01 0.00 59 1015.0
20260507135004 54 0.0 0.0 0.00 0.01 0.00 61 1014.9
20260507134516 54 0.0 0.0 0.00 0.01 0.00 59 1014.9
20260507134006 54 0.0 0.0 0.00 0.01 0.00 63 1015.0
20260507133506 52 0.0 0.0 0.00 0.01 0.00 65 1015.1
20260507133020 50 0.0 0.0 0.00 0.01 0.00 77 1015.2
20260507132505 49 0.0 0.0 0.00 0.01 0.00 73 1015.3
20260507132011 49 0.0 0.0 0.00 0.01 0.00 80 1015.2
20260507131525 48 0.0 0.0 0.00 0.01 0.00 86 1015.4
20260507131009 48 0.0 0.0 0.00 0.01 0.00 90 1015.5
20260507130508 47 0.0 0.0 0.00 0.01 0.00 92 1015.5
20260507130016 47 0.0 0.0 0.00 0.01 0.00 92 1015.5
20260507125506 47 0.0 0.0 0.00 0.01 0.00 92 1015.7
20260507125008 46 0.0 0.0 0.00 0.02 0.00 92 1015.8
20260507124525 46 0.0 0.0 0.00 0.02 0.00 92 1015.7
20260507124007 46 0.0 0.0 0.00 0.02 0.00 92 1015.7
20260507123503 45 0.0 0.0 0.00 0.02 0.00 92 1015.7
20260507123016 44 0.0 0.0 0.00 0.02 0.00 92 1015.6
20260507122506 44 0.0 0.0 0.00 0.02 0.00 92 1015.5
20260507122009 43 0.0 0.0 0.00 0.02 0.00 92 1015.5
20260507121522 43 0.0 0.0 0.00 0.02 0.00 92 1015.5
20260507121007 43 0.0 0.0 0.00 0.02 0.00 92 1015.5
20260507120508 43 0.0 0.0 0.00 0.02 0.00 91 1015.5
20260507120032 43 0.0 0.0 0.00 0.02 0.00 91 1015.5
20260507115508 43 0.0 0.0 0.00 0.02 0.00 91 1015.5
20260507115010 43 0.0 0.0 0.00 0.02 0.00 91 1015.5
20260507114521 42 0.0 0.0 0.00 0.02 0.00 91 1015.4
20260507114009 42 0.0 0.0 0.00 0.02 0.00 90 1015.4
20260507113509 42 0.0 0.0 0.00 0.02 0.00 90 1015.2
20260507113015 42 0.0 0.0 0.00 0.02 0.00 90 1015.2
20260507112507 42 0.0 0.0 0.00 0.02 0.00 90 1015.1
20260507112006 42 0.0 0.0 0.00 0.02 0.00 90 1015.1
20260507111520 42 0.0 0.0 0.00 0.02 0.00 90 1015.1
20260507111009 42 0.0 0.0 0.00 0.02 0.00 89 1015.0
20260507110506 43 0.0 0.0 0.00 0.02 0.00 89 1015.0
20260507110026 43 0.0 0.0 0.00 0.03 0.00 89 1014.9
20260507105506 43 0.0 0.0 0.00 0.03 0.00 89 1014.9
20260507105007 43 0.0 0.0 0.00 0.03 0.00 89 1014.8
20260507104526 43 0.0 0.0 0.00 0.03 0.00 89 1014.7
20260507104011 43 0.0 0.0 0.00 0.03 0.00 89 1014.7
20260507103506 43 0.0 0.0 0.00 0.03 0.00 89 1014.6
20260507103027 43 0.0 0.0 0.00 0.03 0.00 89 1014.7
20260507102509 44 0.0 0.0 0.00 0.03 0.00 89 1014.6
20260507102010 44 0.0 0.0 0.00 0.04 0.00 88 1014.7
20260507101534 44 0.0 0.0 0.00 0.04 0.00 88 1014.7
20260507101012 44 0.0 0.0 0.00 0.04 0.00 88 1014.7
20260507100506 44 0.0 0.0 0.00 0.04 0.00 88 1014.6
20260507100022 44 0.0 0.0 0.00 0.05 0.00 88 1014.5
20260507095507 44 0.0 0.0 0.00 0.05 0.00 88 1014.4
20260507095003 44 0.0 0.0 0.00 0.05 0.00 88 1014.4
20260507094504 45 0.0 0.0 0.00 0.05 0.00 88 1014.4
20260507094003 45 0.0 0.0 0.00 0.06 0.00 87 1014.4
20260507093503 45 0.0 0.0 0.00 0.06 0.00 87 1014.4
20260507093008 45 0.0 0.0 0.00 0.06 0.00 87 1014.4
20260507092504 45 0.0 0.0 0.00 0.06 0.00 87 1014.3
20260507092005 46 0.0 0.0 0.00 0.07 0.00 87 1014.4
20260507091511 46 0.0 0.0 0.00 0.07 0.00 88 1014.4
20260507091007 46 0.0 0.0 0.00 0.07 0.00 88 1014.5
20260507090507 46 0.0 0.0 0.00 0.07 0.00 88 1014.5
20260507090008 46 0.0 0.0 0.00 0.08 0.00 88 1014.5
20260507085503 46 0.0 0.0 0.00 0.09 0.00 88 1014.6
20260507085006 46 0.0 0.0 0.00 0.09 0.00 88 1014.5
20260507084504 46 0.0 0.0 0.00 0.09 0.00 88 1014.5
20260507084003 46 0.0 0.0 0.00 0.12 0.00 88 1014.4
20260507083507 47 0.0 0.0 0.00 0.15 0.00 88 1014.3
20260507083004 47 0.0 0.0 0.00 0.17 0.00 87 1014.4
20260507082503 47 0.0 0.0 0.00 0.19 0.00 87 1014.4
20260507082004 47 0.0 0.0 0.00 0.20 0.00 87 1014.3
20260507081511 47 0.0 0.0 0.00 0.21 0.00 87 1014.2
20260507081003 47 0.0 0.0 0.00 0.22 0.00 87 1014.4
20260507080503 47 0.0 0.0 0.00 0.22 0.00 87 1014.4
20260507080015 47 0.0 0.0 0.00 0.25 0.00 86 1014.5
20260507075503 47 0.0 0.0 0.00 0.28 0.00 86 1014.3
20260507075003 47 0.0 0.0 0.00 0.32 0.00 85 1014.4
20260507074514 47 0.0 0.0 0.00 0.39 0.00 84 1014.5
20260507074008 47 0.0 0.0 0.00 0.40 0.00 84 1014.5
20260507073507 47 0.0 0.0 0.00 0.41 0.00 84 1014.2
20260507073010 47 0.0 0.0 0.00 0.43 0.00 84 1014.2
20260507072508 47 0.0 0.0 0.00 0.43 0.00 83 1014.4
20260507072009 47 0.0 0.0 0.00 0.43 0.00 82 1014.6
20260507071506 48 0.0 0.0 0.00 0.43 0.00 82 1014.6
20260507071007 48 0.0 0.0 0.00 0.43 0.00 82 1014.5
20260507070503 48 0.0 0.0 0.00 0.44 0.00 81 1014.7
20260507070013 48 0.0 0.0 0.00 0.44 0.00 81 1014.6
20260507065503 48 0.0 0.0 0.00 0.44 0.00 81 1014.6
20260507065004 48 0.0 0.0 0.00 0.44 0.00 80 1014.6
20260507064524 48 0.0 0.0 0.00 0.45 0.00 80 1014.7
20260507064003 49 0.0 0.0 0.00 0.45 0.00 79 1014.7
20260507063507 49 0.0 0.0 0.00 0.45 0.00 78 1014.5
20260507063025 49 0.0 0.0 0.00 0.45 0.00 77 1014.4
20260507062509 49 0.0 0.0 0.00 0.45 0.00 76 1014.4
20260507062002 49 0.0 0.0 0.00 0.46 0.00 76 1014.5
20260507061518 49 0.0 0.0 0.00 0.46 0.00 77 1014.5
20260507061008 49 0.0 0.0 0.00 0.46 0.00 78 1014.6
20260507060511 50 0.0 0.0 0.00 0.46 0.00 78 1014.5
20260507060019 50 0.0 0.0 0.00 0.46 0.00 78 1014.5
20260507055503 50 0.0 0.0 0.00 0.46 0.00 76 1014.4
20260507055003 50 0.0 0.0 0.00 0.46 0.00 75 1014.7
20260507054510 50 0.0 0.0 0.00 0.46 0.00 75 1014.6
20260507054004 50 0.0 0.0 0.00 0.46 0.00 74 1014.7
20260507053505 51 0.0 0.0 0.00 0.46 0.00 74 1014.5
20260507053018 51 0.0 0.0 0.00 0.46 0.00 74 1014.7
20260507052504 51 0.0 0.0 0.00 0.47 0.00 74 1014.7
20260507052009 51 0.0 0.0 0.00 0.49 0.00 73 1014.8
20260507051524 51 0.0 0.0 0.00 0.51 0.00 73 1014.9
20260507051003 51 0.0 0.0 0.00 0.51 0.00 73 1014.8
20260507050506 51 0.0 0.0 0.00 0.51 0.00 72 1015.0
20260507050034 51 0.0 0.0 0.00 0.51 0.00 73 1014.9
20260507045509 52 0.0 0.0 0.00 0.51 0.00 74 1014.9
20260507045006 52 0.0 0.0 0.00 0.51 0.00 74 1014.8
20260507044533 52 0.0 0.0 0.00 0.51 0.00 74 1014.8
20260507044005 52 0.0 0.0 0.00 0.51 0.00 74 1014.8
20260507043505 52 0.0 0.0 0.00 0.51 0.00 74 1014.9
20260507043014 52 0.0 0.0 0.00 0.51 0.00 75 1014.9
20260507042506 52 0.0 0.0 0.00 0.51 0.00 75 1015.0
20260507042005 52 0.0 0.0 0.00 0.51 0.00 74 1015.2
20260507041527 52 0.0 0.0 0.00 0.51 0.00 74 1015.2
20260507041005 52 0.0 0.0 0.00 0.51 0.00 75 1015.2
20260507040511 52 0.0 0.0 0.00 0.51 0.00 75 1015.1
20260507040025 52 0.0 0.0 0.00 0.51 0.00 75 1015.0
20260507035506 52 0.0 0.0 0.00 0.51 0.51 76 1014.9
20260507035009 53 0.0 0.0 0.00 0.51 0.51 75 1014.8
20260507034528 53 0.0 0.0 0.00 0.51 0.51 75 1014.7
20260507034005 53 0.0 0.0 0.00 0.51 0.51 76 1014.7
20260507033505 53 0.0 0.0 0.00 0.51 0.51 75 1014.7
20260507033029 53 0.0 0.0 0.00 0.51 0.51 75 1014.6
20260507032505 53 0.0 0.0 0.00 0.51 0.51 75 1014.6
20260507032006 53 0.0 0.0 0.00 0.51 0.51 75 1014.6
20260507031524 53 0.0 0.0 0.00 0.51 0.51 75 1014.6
20260507031011 53 0.0 0.0 0.00 0.51 0.51 75 1014.7
20260507030508 53 0.0 0.0 0.00 0.51 0.51 75 1014.5
20260507030019 53 0.0 0.0 0.00 0.51 0.51 76 1014.5
20260507025506 53 0.0 0.0 0.00 0.51 0.51 76 1014.4
20260507025009 53 0.0 0.0 0.00 0.51 0.51 76 1014.3
20260507024515 53 0.0 0.0 0.00 0.51 0.51 76 1014.4
20260507024009 53 0.0 0.0 0.00 0.51 0.51 76 1014.5
20260507023516 54 0.0 0.0 0.00 0.51 0.51 76 1014.5
20260507023025 54 0.0 0.0 0.00 0.51 0.51 76 1014.3
20260507022509 54 0.0 0.0 0.00 0.51 0.51 77 1014.4
20260507022010 54 0.0 0.0 0.00 0.51 0.51 77 1014.3
20260507021525 54 0.0 0.0 0.00 0.51 0.51 77 1014.3
20260507021003 54 0.0 0.0 0.00 0.51 0.51 78 1014.5
20260507020508 54 0.0 0.0 0.00 0.51 0.51 78 1014.3
20260507020007 54 0.0 0.0 0.00 0.51 0.51 78 1014.4
20260507015504 54 0.0 0.0 0.00 0.51 0.51 78 1014.5
20260507015002 54 0.0 0.0 0.00 0.51 0.51 78 1014.5
20260507014508 54 0.0 0.0 0.00 0.51 0.51 77 1014.5
20260507014003 54 0.0 0.0 0.00 0.51 0.51 76 1014.4
20260507013502 54 0.0 0.0 0.00 0.51 0.51 76 1014.0
20260507013003 55 0.0 0.0 0.00 0.51 0.51 76 1013.8
20260507012502 55 0.0 0.0 0.00 0.51 0.51 76 1013.8
20260507012002 55 0.0 0.0 0.00 0.51 0.51 76 1013.7
20260507011517 55 0.0 0.0 0.00 0.51 0.51 76 1013.8
20260507011002 55 0.0 0.0 0.00 0.51 0.51 76 1013.7
20260507010503 55 0.0 0.0 0.00 0.51 0.51 76 1013.7
20260507010014 55 0.0 0.0 0.00 0.51 0.51 75 1013.9
20260507005504 55 0.0 0.0 0.00 0.51 0.51 77 1013.2
20260507005002 55 0.0 0.0 0.00 0.51 0.51 77 1013.6
20260507004529 55 0.0 0.0 0.00 0.51 0.51 76 1013.3
20260507004006 56 0.0 0.0 0.00 0.51 0.51 77 1013.2
20260507003503 56 0.0 0.0 0.00 0.51 0.51 76 1013.6
20260507003004 56 0.0 0.0 0.00 0.51 0.51 76 1013.5
20260507002502 56 0.0 0.0 0.00 0.51 0.51 77 1013.0
20260507002003 56 0.0 0.0 0.00 0.51 0.51 77 1013.1
20260507001507 56 0.0 0.0 0.00 0.51 0.51 77 1013.1
20260507001005 57 0.0 0.0 0.00 0.51 0.51 78 1012.9
20260507000505 57 0.0 0.0 0.00 0.51 0.51 78 1013.1
20260507000004 57 0.0 0.0 0.00 0.51 0.51 78 1013.1
20260506235504 57 0.0 0.0 0.00 0.51 0.51 78 1013.4
20260506235004 57 0.0 0.0 0.00 0.51 0.51 79 1013.0
20260506234520 58 0.0 0.0 0.00 0.51 0.51 79 1012.7
20260506234004 58 0.0 0.0 0.00 0.51 0.51 79 1012.6
20260506233509 58 0.0 0.0 0.00 0.51 0.51 79 1012.3
20260506233018 58 0.0 0.0 0.00 0.51 0.51 79 1012.3
20260506232502 58 0.0 0.0 0.00 0.51 0.51 78 1012.9
20260506232002 58 0.0 0.0 0.00 0.51 0.51 78 1012.4
20260506231514 58 0.0 0.0 0.00 0.51 0.51 79 1012.7
20260506231003 58 0.0 0.0 0.00 0.51 0.51 77 1012.8
20260506230504 59 0.0 0.0 0.00 0.51 0.51 78 1012.6
20260506230009 59 0.0 0.0 0.00 0.51 0.51 77 1012.3
20260506225503 59 0.0 0.0 0.00 0.51 0.51 76 1012.2
20260506225003 59 0.0 0.0 0.00 0.51 0.51 76 1012.0
20260506224509 59 0.0 0.0 0.00 0.51 0.51 77 1012.4
20260506224003 59 0.0 0.0 0.00 0.51 0.51 77 1012.8
20260506223503 59 0.0 0.0 0.00 0.51 0.51 76 1012.9
20260506223006 59 0.0 0.0 0.00 0.51 0.51 77 1012.8
20260506222504 59 0.0 0.0 0.00 0.51 0.51 77 1012.9
20260506222008 60 0.0 0.0 0.00 0.51 0.51 76 1013.2
20260506221524 60 0.0 0.0 0.00 0.51 0.51 77 1013.1
20260506221004 60 0.0 0.0 0.00 0.51 0.51 76 1013.0
20260506220504 60 0.0 0.0 0.00 0.51 0.51 73 1012.9
20260506220006 60 0.0 0.0 0.00 0.51 0.51 75 1012.9
20260506215507 60 0.0 0.0 0.00 0.51 0.51 73 1012.6
20260506215008 60 0.0 0.0 0.00 0.51 0.51 73 1012.4
20260506214514 60 0.0 0.0 0.00 0.51 0.51 75 1012.5
20260506214008 60 0.0 0.0 0.00 0.51 0.51 75 1012.4
20260506213507 60 0.0 0.0 0.00 0.51 0.51 74 1012.6
20260506213017 60 0.0 0.0 0.00 0.51 0.51 73 1012.7
20260506212507 60 0.0 0.0 0.00 0.51 0.51 74 1012.5
20260506212006 60 0.0 0.0 0.00 0.51 0.51 76 1012.4
20260506211515 60 0.0 0.0 0.00 0.51 0.51 75 1012.1
20260506211008 60 0.0 0.0 0.00 0.51 0.51 75 1012.2
20260506210507 60 0.0 0.0 0.00 0.51 0.51 74 1012.2
20260506210009 60 0.0 0.0 0.00 0.51 0.51 71 1012.3
20260506205507 60 0.0 0.0 0.00 0.51 0.51 72 1012.4
20260506205004 60 0.0 0.0 0.00 0.51 0.51 73 1012.6
20260506204507 60 0.0 0.0 0.00 0.51 0.51 76 1012.6
20260506204003 60 0.0 0.0 0.00 0.51 0.51 75 1012.5
20260506203507 60 0.0 0.0 0.00 0.51 0.51 74 1012.5
20260506203021 60 0.0 0.0 0.00 0.51 0.51 73 1012.7
20260506202504 60 0.0 0.0 0.00 0.51 0.51 75 1012.7
20260506202004 59 0.0 0.0 0.00 0.51 0.51 74 1012.7
20260506201530 59 0.0 0.0 0.00 0.51 0.51 77 1012.7
20260506201010 59 0.0 0.0 0.00 0.51 0.51 77 1012.6
20260506200505 59 0.0 0.0 0.00 0.51 0.51 76 1012.5
20260506200017 59 0.0 0.0 0.00 0.51 0.51 75 1012.7
20260506195509 59 0.0 0.0 0.00 0.51 0.51 75 1012.8
20260506195002 59 0.0 0.0 0.00 0.51 0.51 78 1012.8
20260506194516 59 0.0 0.0 0.00 0.51 0.51 81 1012.7
20260506194008 59 0.0 0.0 0.00 0.51 0.51 75 1012.7
20260506193504 59 0.0 0.0 0.00 0.51 0.51 77 1012.5
20260506193009 58 0.0 0.0 0.00 0.51 0.51 78 1012.4
20260506192505 58 0.0 0.0 0.00 0.51 0.51 81 1012.4
20260506192008 58 0.0 0.0 0.00 0.51 0.51 82 1012.4
20260506191509 58 0.0 0.0 0.00 0.51 0.51 81 1012.4
20260506191007 58 0.0 0.0 0.00 0.51 0.51 81 1012.5
20260506190507 58 0.0 0.0 0.00 0.51 0.51 80 1012.5
20260506190020 58 0.0 0.0 0.00 0.51 0.51 79 1012.5
20260506185505 58 0.0 0.0 0.00 0.51 0.51 80 1012.4
20260506185005 58 0.0 0.0 0.00 0.51 0.51 81 1012.3
20260506184523 58 0.0 0.0 0.00 0.51 0.51 82 1012.5
20260506184004 58 0.0 0.0 0.00 0.51 0.51 82 1012.4
20260506183506 58 0.0 0.0 0.00 0.51 0.51 82 1012.2
20260506183029 58 0.0 0.0 0.00 0.51 0.51 81 1012.3
20260506182507 58 0.0 0.0 0.00 0.51 0.51 82 1012.4
20260506182003 58 0.0 0.0 0.00 0.51 0.51 82 1012.4
20260506181512 58 0.0 0.0 0.00 0.51 0.51 81 1012.1
20260506181006 58 0.0 0.0 0.00 0.51 0.51 81 1012.2
20260506180506 58 0.0 0.0 0.00 0.51 0.51 82 1012.2
20260506180018 58 0.0 0.0 0.00 0.51 0.51 82 1012.2
20260506175504 58 0.0 0.0 0.00 0.51 0.51 81 1012.2
20260506175007 58 0.0 0.0 0.00 0.51 0.51 82 1012.3
20260506174512 58 0.0 0.0 0.00 0.51 0.51 82 1012.4
20260506174006 58 0.0 0.0 0.00 0.51 0.51 82 1012.2
20260506173505 57 0.0 0.0 0.00 0.51 0.51 82 1012.3
20260506173024 57 0.0 0.0 0.00 0.51 0.51 83 1012.4
20260506172503 57 0.0 0.0 0.00 0.51 0.51 85 1012.5
20260506172009 57 0.0 0.0 0.00 0.51 0.51 83 1012.3
20260506171530 57 0.0 0.0 0.00 0.51 0.51 84 1012.4
20260506171006 57 0.0 0.0 0.00 0.51 0.51 85 1012.5
20260506170502 57 0.0 0.0 0.00 0.51 0.51 85 1012.6
20260506170015 56 0.0 0.0 0.00 0.51 0.51 86 1012.8
20260506165510 56 0.0 0.0 0.00 0.51 0.51 85 1012.7
20260506165008 56 0.0 0.0 0.00 0.51 0.51 84 1012.8
20260506164506 56 0.0 0.0 0.00 0.51 0.51 88 1012.9
20260506164004 55 0.0 0.0 0.00 0.51 0.51 88 1012.9
20260506163502 55 0.0 0.0 0.00 0.51 0.51 87 1012.8
20260506163002 55 0.0 0.0 0.00 0.51 0.51 87 1012.8
20260506162502 54 0.0 0.0 0.00 0.51 0.51 89 1012.8
20260506162002 54 0.0 0.0 0.00 0.51 0.51 89 1012.7
20260506161507 54 0.0 0.0 0.00 0.51 0.51 89 1012.6
20260506161002 54 0.0 0.0 0.00 0.51 0.51 89 1012.4
20260506160503 54 0.0 0.0 0.00 0.51 0.51 90 1012.3
20260506160016 54 0.0 0.0 0.00 0.51 0.51 90 1012.5
20260506155502 53 0.0 0.0 0.00 0.51 0.51 90 1012.6
20260506155003 53 0.0 0.0 0.00 0.51 0.51 91 1012.5
20260506154508 53 0.0 0.0 0.00 0.51 0.51 90 1012.4
20260506154006 52 0.0 0.0 0.00 0.51 0.51 90 1012.4
20260506153503 52 0.0 0.0 0.00 0.51 0.51 90 1012.4
20260506153003 52 0.0 0.0 0.00 0.51 0.51 91 1012.4
20260506152504 52 0.0 0.0 0.00 0.51 0.51 90 1012.4
20260506152003 52 0.0 0.0 0.00 0.51 0.51 90 1012.3
20260506151505 52 0.0 0.0 0.00 0.51 0.51 91 1012.0
20260506151002 52 0.0 0.0 0.00 0.51 0.51 91 1011.9
20260506150503 52 0.0 0.0 0.00 0.51 0.51 91 1012.0
20260506150004 52 0.0 0.0 0.01 0.51 0.51 91 1011.9
20260506145503 52 0.0 0.0 0.01 0.51 0.51 91 1011.9
20260506145003 52 0.0 0.0 0.01 0.51 0.51 91 1011.8
20260506144512 52 0.0 0.0 0.01 0.51 0.51 91 1011.6
20260506144002 52 0.0 0.0 0.01 0.51 0.51 91 1011.5
20260506143503 52 0.0 0.0 0.01 0.51 0.51 91 1011.6
20260506143024 52 0.0 0.0 0.01 0.51 0.51 92 1011.5